METEOR 2-17 DEB

Satellite information

Favourite Embed

Satellite Type and Status

DEBRISIN ORBIT

Key statistics

Satellite METEOR 2-17 DEB at a glance.

Uptime

13833

Days in orbit

Revolutions

≈ 14.0

Per day

Orbit

LEO

Low Earth Orbit

Inclination

82.5

Latest

Satellite identification and parameters

Extended collection of information and parameters for METEOR 2-17 DEB.

Object identification

Identified? True

Debris? True

Object name: METEOR 2-17 DEB

International designator: 1988-005T

Object number (NORAD): 31398

Object ID (CCSDS): 31398

Country: COMMONWEALTH OF INDEPENDENT STATES (CIS)

Current information (Y/N): Y

RCS size: SMALL

Orbital parameters

Period: 102.686 minutes

Inclination: 82.5328 deg

SMA: 7263.871 km

Apoapsis: 899.479 km

Periapsis: 871.993 km

RAAN: 65.2458 deg

Eccentricy: 0.00189195

Argument of periapsis: 63.0832 deg

Mean anomaly: 297.2269 deg

Mean motion: 14.02331177 rev/day

Mean motion (dot): 0.00004348 rev/day2

B* drag term: 0.0028214811 1/REarth

Two-line elements (TLE)

Creation date: Dec. 11, 2025, 7:14 p.m.

Reference frame: TEME

Reference center: EARTH

Epoch: Dec. 11, 2025, 11:47 a.m. UTC

TLE line 0: 0 METEOR 2-17 DEB

TLE line 1: 1 31398U 88005T 25345.49110484 .00004348 00000-0 28215-2 0 9994

TLE line 2: 2 31398 82.5328 65.2458 0018919 63.0832 297.2269 14.02331177632540

Live tracking on map

Real-time ground track for satellite METEOR 2-17 DEB.

In-orbit conjunctions

A list of the most updated potential collisions computed for object METEOR 2-17 DEB.

Target Orbit TCA Probability of collision Miss distance Type
FENGYUN 1B SSO 2025-04-12 13:07:33 0.0002194218 374.0 (m) PAYLOAD
COSMOS 1275 DEB LEO 2024-11-10 21:29:56 0.0001422475 854.0 (m) DEBRIS

Associated space launch

Second generation soviet meteorological satellite

METEOR 2-17 DEB was lifted into orbit during the mission ‘Tsiklon-3 | Meteor-2 17’, on board a Tsiklon-3 space rocket.

The launch took place on Jan. 30, 1988, 10:59 a.m. from 32/1.

For more information about the launch, click the button.

Launch to space Tsiklon-3 | Meteor-2 17
Tsiklon-3 | Meteor-2 17

Agency: N/A

Status: Launch Successful

Launch date: Jan. 30, 1988, 10:59 a.m. UTC

Rocket: Tsiklon-3

Launch pad: 32/1

Location: Plesetsk Cosmodrome, Russian Federation

...

Latest news about this satellite

There are no fresh news available about this satellite. Check back as we update our databases every day.


Newsletter sign-up

Weekly statistics, charts and insights to help you stay on top of the space industry.